This is the latest recevied weather packets stored in our database for station/object N5PA. If no packets are shown the sender has not sent any weather packets the latest 10 day(s).
| Time | Temp. | Humidity | Pressure | Rain* | Wind** | Luminosity | Snow |
|---|---|---|---|---|---|---|---|
| 1777911008 | 23.33° C | 47% | 1017.8 hPa | 0 mm | - | 1002 W/m² | - |
| 1777910708 | 23.33° C | 46% | 1017.9 hPa | 0 mm | - | 1000 W/m² | - |
| 1777910408 | 23.33° C | 48% | 1018 hPa | 0 mm | - | 1002 W/m² | - |
| 1777910107 | 23.33° C | 46% | 1018 hPa | 0 mm | - | 1002 W/m² | - |
| 1777909807 | 23.33° C | 47% | 1018 hPa | 0 mm | - | 1000 W/m² | - |
| 1777909507 | 22.78° C | 49% | 1018 hPa | 0 mm | - | 1002 W/m² | - |
| 1777909207 | 22.78° C | 47% | 1018 hPa | 0 mm | - | 1000 W/m² | - |
| 1777908909 | 22.22° C | 52% | 1017.9 hPa | 0 mm | - | 1002 W/m² | - |
| 1777908607 | 22.22° C | 53% | 1018 hPa | 0 mm | - | 1004 W/m² | - |
| 1777908308 | 22.22° C | 56% | 1018 hPa | 0 mm | - | 1004 W/m² | - |
| 1777908008 | 21.67° C | 54% | 1018.2 hPa | 0 mm | - | 1004 W/m² | - |
| 1777907708 | 21.67° C | 55% | 1018.2 hPa | 0 mm | - | 1004 W/m² | - |
| 1777907407 | 21.11° C | 56% | 1018.1 hPa | 0 mm | - | 1005 W/m² | - |
| 1777907108 | 21.11° C | 58% | 1018.2 hPa | 0 mm | - | 1005 W/m² | - |
| 1777906808 | 20.56° C | 60% | 1018.1 hPa | 0 mm | - | 1005 W/m² | - |
| 1777906508 | 20.56° C | 62% | 1018.1 hPa | 0 mm | - | 1007 W/m² | - |
| 1777906207 | 20° C | 62% | 1018.1 hPa | 0 mm | - | 1005 W/m² | - |
| 1777905907 | 20° C | 61% | 1018.1 hPa | 0 mm | - | 1005 W/m² | - |
| 1777905606 | 20° C | 63% | 1018.2 hPa | 0 mm | - | 1007 W/m² | - |
| 1777905308 | 19.44° C | 64% | 1018.3 hPa | 0 mm | - | 1007 W/m² | - |
| 1777905008 | 18.89° C | 66% | 1018.2 hPa | 0 mm | - | 1009 W/m² | - |
| 1777904707 | 18.89° C | 64% | 1018.3 hPa | 0 mm | - | 1011 W/m² | - |
| 1777904406 | 18.89° C | 67% | 1018.3 hPa | 0 mm | - | 1009 W/m² | - |
| 1777904107 | 18.33° C | 66% | 1018.3 hPa | 0 mm | - | 1011 W/m² | - |
| 1777903806 | 18.33° C | 68% | 1018.2 hPa | 0 mm | - | 1009 W/m² | - |
* Rain latest hour (hover to see other rain measurements)
** Current wind speed in m/s (hover to see current wind gust speed)